• Processing (Info)

  • MPEC 2003-S29 : 2003 SH36

    The following Minor Planet Electronic Circular may be linked-to from your own Web pages, but must not otherwise be redistributed electronically.

    A form allowing access to any MPEC is at the bottom of this page.


    Read MPEC 2003-S28 Read MPEC 2003-S30


    M.P.E.C. 2003-S29                                Issued 2003 Sept. 20, 14:26 UT
    
         The Minor Planet Electronic Circulars contain information on unusual
             minor planets and routine data on comets.  They are published
       on behalf of Commission 20 of the International Astronomical Union by the
              Minor Planet Center, Smithsonian Astrophysical Observatory,
                              Cambridge, MA 02138, U.S.A.
    
             Supported in part by the Steven and Michele Kirsch Foundation
                 Prepared using the Tamkin Foundation Computer Network
    
                                  MPC@CFA.HARVARD.EDU
              URL http://cfa-www.harvard.edu/iau/mpc.html  ISSN 1523-6714
    
                                       2003 SH36
    
    Observations:
         K03S36H* C2003 09 19.13032 23 30 08.92 +34 03 25.3          18.5        644
         K03S36H  C2003 09 19.15200 23 30 00.21 +34 04 43.1          18.6        644
         K03S36H  C2003 09 19.17377 23 29 51.44 +34 06 00.6          18.5        644
         K03S36H  C2003 09 19.86785 23 25 13.34 +34 46 06.3                      246
         K03S36H  C2003 09 19.86906 23 25 12.83 +34 46 10.7                      246
         K03S36H  C2003 09 19.86965 23 25 12.58 +34 46 12.1                      246
         K03S36H  C2003 09 19.87017 23 25 12.38 +34 46 14.2                      246
         K03S36H  C2003 09 19.87080 23 25 12.14 +34 46 16.8                      246
         K03S36H  C2003 09 19.87140 23 25 11.88 +34 46 18.8                      246
         K03S36H  C2003 09 19.87501 23 25 10.47 +34 46 32.6                      587
         K03S36H  C2003 09 19.87611 23 25 10.07 +34 46 35.5                      587
         K03S36H  C2003 09 19.87722 23 25 09.61 +34 46 38.9                      587
         K03S36H  C2003 09 19.87833 23 25 09.13 +34 46 43.6                      587
         K03S36H  C2003 09 19.88762 23 25 05.36 +34 47 14.4                      026
         K03S36H  C2003 09 19.88913 23 25 04.68 +34 47 19.4          19.0 V      151
         K03S36H  C2003 09 19.88987 23 25 04.38 +34 47 22.6          18.6 V      151
         K03S36H  C2003 09 19.89040 23 25 04.22 +34 47 24.1                      026
         K03S36H  C2003 09 19.89344 23 25 02.94 +34 47 34.3          19.0 V      151
         K03S36H  C2003 09 19.89425 23 25 02.62 +34 47 36.9          18.9 V      151
         K03S36H  C2003 09 19.89595 23 25 01.97 +34 47 42.9                      026
         K03S36H  C2003 09 19.90291 23 24 59.26 +34 48 05.0          19.2 R      J95
         K03S36H  C2003 09 19.90561 23 24 58.00 +34 48 14.1                      636
         K03S36H  C2003 09 19.90685 23 24 57.46 +34 48 19.0                      636
         K03S36H  C2003 09 19.90809 23 24 57.01 +34 48 21.9                      636
         K03S36H  C2003 09 19.90810 23 24 57.17 +34 48 23.4          18.8 R      J95
         K03S36H  C2003 09 19.90938 23 24 56.68 +34 48 30.4          18.8 R      J87
         K03S36H  C2003 09 19.91053 23 24 56.29 +34 48 34.8          19.6 R      J87
         K03S36H  C2003 09 19.91169 23 24 55.82 +34 48 38.5          19.1 R      J87
         K03S36H  C2003 09 19.91256 23 24 55.30 +34 48 37.8          19.3 R      J95
         K03S36H  C2003 09 19.91284 23 24 55.19 +34 48 43.2          18.8 R      J87
         K03S36H  C2003 09 19.91399 23 24 54.93 +34 48 46.0          19.4 R      J87
         K03S36H  C2003 09 19.92356 23 24 50.73 +34 49 20.0          18.3 R      620
         K03S36H  C2003 09 19.93075 23 24 47.78 +34 49 40.9          18.5 R      012
         K03S36H  C2003 09 19.93223 23 24 47.15 +34 49 45.3          18.4 R      012
         K03S36H  C2003 09 19.93347 23 24 46.66 +34 49 48.9          19.7 R      012
         K03S36H  C2003 09 19.93471 23 24 46.11 +34 49 54.7          18.9 R      012
         K03S36H  C2003 09 19.93495 23 24 46.07 +34 49 59.1          18.5 R      620
         K03S36H  C2003 09 19.94296 23 24 42.75 +34 50 22.2          19.4 R      012
         K03S36H  C2003 09 19.94635 23 24 41.39 +34 50 37.0          17.8 R      620
         K03S36H  C2003 09 19.95429 23 24 37.93 +34 51 01.6                      118
         K03S36H  C2003 09 19.95644 23 24 37.06 +34 51 09.1                      118
         K03S36H  C2003 09 19.95938 23 24 35.83 +34 51 18.7                      118
         K03S36H  C2003 09 19.96050 23 24 35.39 +34 51 22.8          18.8 R      118
         K03S36H  C2003 09 19.96503 23 24 33.79 +34 51 39.9          18.4 R      132
         K03S36H  C2003 09 19.96939 23 24 31.99 +34 51 54.5          18.8 R      132
         K03S36H  C2003 09 19.97375 23 24 30.19 +34 52 08.9          18.8 R      132
         K03S36H  C2003 09 19.98054 23 24 27.23 +34 52 31.4          18.1 R      106
         K03S36H  C2003 09 19.99162 23 24 22.74 +34 53 09.1          18.3 R      106
         K03S36H  C2003 09 20.00142 23 24 18.68 +34 53 42.1          18.1 R      106
         K03S36H  C2003 09 20.01204 23 24 14.35 +34 54 17.7          18.2 R      106
         K03S36H  C2003 09 20.10113 23 23 38.09 +34 59 19.4          18.4 R      176
         K03S36H  C2003 09 20.10206 23 23 37.71 +34 59 22.6          18.4 R      176
         K03S36H  C2003 09 20.10590 23 23 36.12 +34 59 35.8          18.4 R      176
         K03S36H  C2003 09 20.10682 23 23 35.74 +34 59 39.0          18.1 R      176
         K03S36H  C2003 09 20.17625 23 23 09.42 +35 03 36.2          19.0 R      448
         K03S36H  C2003 09 20.18063 23 23 07.64 +35 03 51.1          19.2 R      448
         K03S36H  C2003 09 20.18628 23 23 05.33 +35 04 10.1          19.1 R      448
         K03S36H  C2003 09 20.26345 23 22 33.49 +35 08 31.1          19.6 R      854
         K03S36H  C2003 09 20.26514 23 22 33.07 +35 08 35.7          19.4 R      854
         K03S36H  C2003 09 20.26853 23 22 31.53 +35 08 48.2          19.5 R      854
         K03S36H  C2003 09 20.28471 23 22 24.55 +35 09 39.1          18.7 R      734
         K03S36H  C2003 09 20.29061 23 22 22.17 +35 09 58.9          18.3 R      734
         K03S36H  C2003 09 20.29546 23 22 20.19 +35 10 15.6          19.9 R      734
    
    Observer details:
    012 Uccle.  Observer T. Pauwels.  0.85-m f/2.5 Schmidt + CCD.
    026 Berne-Zimmerwald.  Observer R. Musci.  1.0-m f/4 reflector + CCD.
    106 Crni Vrh.  Observers H. Mikuz, S. Maticic.  0.60-m f/3.3 Deltagraph + CCD.
    118 Modra.  Observer S. Gajdos.  0.6-m f/5.5 reflector + CCD.
    132 Bedoin.  Observer P. Antonini.  0.30-m f/3.3 Schmidt-Cassegrain + CCD.
    151 Eschenberg Observatory, Winterthur.  Observer M. Griesser.  0.40-m f/5.8
        Hypergraph + CCD.
    176 Observatori Astronomic de Consell.  Observers A. Lopez, R. Pacheco.
        0.41-m f/4 reflector + CCD.
    246 Klet Observatory-KLENOT.  Observers M. Tichy, J. Ticha.  1.06-m KLENOT
        Telescope + CCD.
    448 Desert Moon Observatory.  Observer B. L. Stevens.  0.3-m
        Schmidt-Cassegrain + CCD.
    587 Sormano.  Observer F. Manca.  0.5-m reflector + CCD.
    620 Observatorio Astronomico de Mallorca.  Observers S. Sanchez, R. Stoss,
        J. Nomen.  0.30-m f/9 Schmidt-Cassegrain + CCD.
    636 Essen.  Observer T. Payer.  0.32-m f/5.7 reflector + CCD.
    644 Palomar Mountain/NEAT.  Observers S. Pravdo, D. MacDonald, K. Lawrence,
        M. Hicks.  1.2-m Schmidt + CCD.
    734 Farpoint Observatory.  Observer G. Hug. 0.3-m f/6 Schmidt-Cassegrain
        + CCD.
    854 Sabino Canyon Observatory, Tucson.  Observer J. E. McGaha.  0.30-m f/10.0
        Schmidt-Cassegrain + CCD.
    J87 La Canada.  Observer J. Lacruz.  0.30-m f/3.3 Schmidt-Cassegrain + CCD.
    J95 Great Shefford.  Observer P. Birtwhistle.  0.30-m f/6.3 Schmidt-Cassegrain
        + CCD.
    
    Orbital elements:
    2003 SH36
    Epoch 2003 Sept. 18.0 TT = JDT 2452900.5                MPC
    M 328.31612              (2000.0)            P               Q
    n   0.48355200     Peri.   56.74751     +0.63854415     -0.75812593
    a   1.6075849      Node   349.77712     +0.16597361     +0.30354228
    e   0.1628376      Incl.   48.20314     +0.75147464     +0.57715436
    P   2.04           H   18.9           G   0.15
    From 63 observations 2003 Sept. 19-20.
    
    Ephemeris:
    2003 SH36                a,e,i = 1.61, 0.16, 48                  q = 1.3458
    Date    TT    R. A. (2000) Decl.     Delta      r     Elong.  Phase     V
    2003 09 18    23 37.56   +32 55.3    0.452    1.399   144.9    24.4    19.0
    2003 09 28    22 29.84   +40 51.9    0.486    1.385   134.1    31.3    19.4
    2003 10 08    21 30.16   +44 14.7    0.555    1.373   121.4    38.4    19.8
    2003 10 18    20 49.19   +44 59.1    0.641    1.362   110.7    43.2    20.3
    2003 10 28    20 25.40   +44 51.6    0.734    1.354   102.2    45.8    20.6
    2003 11 07    20 13.88   +44 44.6    0.823    1.349    95.6    47.0    20.9
    2003 11 17    20 10.66   +44 57.1    0.905    1.346    90.5    47.3    21.1
    2003 11 27    20 13.38   +45 35.8    0.977    1.346    86.6    47.0    21.3
    2003 12 07    20 20.69   +46 44.0    1.036    1.349    83.7    46.6    21.4
    2003 12 17    20 31.93   +48 22.5    1.081    1.354    81.8    46.0    21.5
    2003 12 27    20 47.08   +50 32.1    1.115    1.361    80.7    45.5    21.5
    2004 01 06    21 06.59   +53 13.7    1.136    1.371    80.3    45.0    21.6
    2004 01 16    21 31.61   +56 25.1    1.148    1.384    80.5    44.5    21.6
    2004 01 26    22 04.36   +60 01.3    1.154    1.398    81.2    44.1    21.6
    2004 02 05    22 48.57   +63 48.9    1.157    1.414    82.2    43.7    21.7
    2004 02 15    23 49.86   +67 18.1    1.161    1.432    83.1    43.2    21.7
    2004 02 25    01 12.84   +69 35.5    1.172    1.451    83.9    42.7    21.7
    2004 03 06    02 50.49   +69 35.3    1.193    1.471    84.1    42.1    21.8
    2004 03 16    04 21.27   +66 53.7    1.228    1.492    83.6    41.5    21.8
    2004 03 26    05 31.65   +62 13.0    1.279    1.513    82.3    40.8    21.9
    
    Brian G. Marsden             (C) Copyright 2003 MPC           M.P.E.C. 2003-S29
    

    Read MPEC 2003-S28 Read MPEC 2003-S30


    MPEC number:

    Enter an MPEC number in one of the following forms:

    • 1997-B01 (the full form)
    • J97B01 (the packed version of the full form)
    • B01 (the abbreviated form)